{"data":{"norad_id":57194,"intl_designator":"2023-091AE","name":"SITRO-AIS 7 (FARTUSHNIY)","alt_names":[],"object_type":"PAYLOAD","status":"ACTIVE","operator":null,"country":"CIS","launch_date":"2023-06-27","launch_site_code":"VOSTO","launch_vehicle":null,"mission":null,"orbit_class":"UNKNOWN","rcs_meters":null,"size_class":null,"mass_kg":null,"dimensions":null,"purposes":["tech_demo"],"wikipedia_slug":null,"has_3d_model":false,"image_url":null,"decayed_at":null,"tle_current":{"epoch":"2026-09-19T21:51:53.090496Z","epoch_age_seconds":65651,"freshness":"FRESH","line1":"1 57194U 23091AE  26262.91103114  .00006591  00000+0  25018-3 0  9998","line2":"2 57194  97.4966 326.1551 0012300 129.8695 230.3627 15.27113682178722","mean_motion":15.27113682,"eccentricity":0.00123,"inclination_deg":97.4966,"raan_deg":326.1551,"arg_perigee_deg":129.8695,"mean_anomaly_deg":230.3627,"bstar":0.00025018,"rev_number":17872,"period_min":94.295533919524,"perigee_km":476.00479837992,"apogee_km":492.88675200689,"semimajor_km":6862.5827751934,"source":"CELESTRAK","updated_at":"2026-09-20T09:00:48.036276Z"}}}